• In Hungary
  • List of Countries
  • For 7 days
  • Water Temperature
  • Satellite Maps
  • Weather Map
  • News
  • Weather Widgets
  • user-avatar
    Login

    Hourly Weather Zhemchuzhnyy

    Today, 22 August, Wednesday

    Time Temperature Precipitation Wind Pressure Humidity
    00:00 +20°C° 0 mm 4 mps 740 mmHg 50%
    01:00 +19°C° 0.1 mm 4 mps 740 mmHg 56%
    02:00 +19°C° 0.1 mm 3 mps 740 mmHg 62%
    03:00 +18°C° 0.1 mm 3 mps 740 mmHg 68%
    04:00 +18°C° 0.2 mm 3 mps 740 mmHg 75%
    05:00 +17°C° 0.2 mm 3 mps 740 mmHg 81%
    06:00 +17°C° 0.2 mm 3 mps 740 mmHg 88%
    07:00 +18°C° 0 mm 4 mps 741 mmHg 81%
    08:00 +19°C° 0 mm 4 mps 741 mmHg 73%
    09:00 +20°C° 0 mm 5 mps 742 mmHg 65%
    10:00 +21°C° 0 mm 5 mps 742 mmHg 58%
    11:00 +21°C° 0 mm 6 mps 742 mmHg 52%
    12:00 +22°C° 0 mm 6 mps 743 mmHg 45%
    13:00 +22°C° 0 mm 6 mps 743 mmHg 43%
    14:00 +22°C° 0 mm 6 mps 743 mmHg 41%
    15:00 +22°C° 0 mm 7 mps 743 mmHg 39%
    16:00 +21°C° 0 mm 6 mps 744 mmHg 43%
    17:00 +20°C° 0 mm 5 mps 744 mmHg 46%
    18:00 +20°C° 0 mm 4 mps 744 mmHg 50%
    19:00 +18°C° 0 mm 4 mps 745 mmHg 54%
    20:00 +17°C° 0 mm 4 mps 745 mmHg 58%
    21:00 +14°C° 0 mm 3 mps 745 mmHg 61%
    22:00 +14°C° 0 mm 3 mps 746 mmHg 64%
    23:00 +13°C° 0 mm 3 mps 746 mmHg 66%

    Tomorrow, 23 August, Thursday

    Time Temperature Precipitation Wind Pressure Humidity
    00:00 +13°C° 0 mm 3 mps 747 mmHg 69%
    01:00 +12°C° 0 mm 3 mps 747 mmHg 71%
    02:00 +12°C° 0 mm 3 mps 747 mmHg 73%
    03:00 +11°C° 0 mm 3 mps 747 mmHg 75%
    04:00 +11°C° 0 mm 3 mps 748 mmHg 75%
    05:00 +12°C° 0 mm 2 mps 748 mmHg 76%
    06:00 +12°C° 0 mm 2 mps 748 mmHg 77%
    07:00 +13°C° 0 mm 3 mps 749 mmHg 69%
    08:00 +16°C° 0 mm 3 mps 749 mmHg 61%
    09:00 +18°C° 0 mm 3 mps 749 mmHg 53%
    10:00 +19°C° 0 mm 3 mps 749 mmHg 49%
    11:00 +19°C° 0 mm 3 mps 749 mmHg 45%
    12:00 +20°C° 0 mm 3 mps 750 mmHg 41%
    13:00 +21°C° 0 mm 3 mps 749 mmHg 40%
    14:00 +21°C° 0 mm 3 mps 749 mmHg 39%
    15:00 +22°C° 0 mm 3 mps 749 mmHg 38%
    16:00 +21°C° 0 mm 3 mps 749 mmHg 42%
    17:00 +21°C° 0 mm 2 mps 749 mmHg 45%
    18:00 +20°C° 0 mm 2 mps 749 mmHg 48%
    19:00 +18°C° 0 mm 2 mps 749 mmHg 52%
    20:00 +17°C° 0 mm 2 mps 749 mmHg 55%
    21:00 +15°C° 0 mm 1 mps 749 mmHg 59%
    22:00 +14°C° 0 mm 1 mps 749 mmHg 60%
    23:00 +14°C° 0 mm 1 mps 750 mmHg 62%

    Day after tomorrow, 24 August, Friday

    Time Temperature Precipitation Wind Pressure Humidity
    00:00 +13°C° 0 mm 1 mps 750 mmHg 64%
    01:00 +13°C° 0 mm 1 mps 750 mmHg 65%
    02:00 +13°C° 0 mm 1 mps 750 mmHg 66%
    03:00 +12°C° 0 mm 1 mps 750 mmHg 67%
    04:00 +11°C° 0 mm 0 mps 750 mmHg 68%
    05:00 +11°C° 0 mm 0 mps 750 mmHg 69%
    06:00 +11°C° 0 mm 0 mps 750 mmHg 70%
    07:00 +13°C° 0 mm 0 mps 750 mmHg 63%
    08:00 +16°C° 0 mm 0 mps 750 mmHg 57%
    09:00 +18°C° 0 mm 0 mps 750 mmHg 50%
    10:00 +21°C° 0 mm 1 mps 750 mmHg 46%
    11:00 +22°C° 0 mm 1 mps 750 mmHg 43%
    12:00 +23°C° 0 mm 1 mps 750 mmHg 39%
    13:00 +24°C° 0 mm 1 mps 749 mmHg 37%
    14:00 +24°C° 0 mm 1 mps 749 mmHg 36%
    15:00 +25°C° 0 mm 1 mps 749 mmHg 35%
    16:00 +24°C° 0 mm 1 mps 749 mmHg 38%
    17:00 +24°C° 0 mm 1 mps 749 mmHg 41%
    18:00 +23°C° 0 mm 1 mps 748 mmHg 44%
    19:00 +21°C° 0 mm 1 mps 748 mmHg 47%
    20:00 +20°C° 0 mm 1 mps 748 mmHg 49%
    21:00 +18°C° 0 mm 1 mps 748 mmHg 52%
    22:00 +16°C° 0 mm 1 mps 748 mmHg 54%
    23:00 +16°C° 0 mm 1 mps 748 mmHg 55%

    25 August, Saturday

    Time Temperature Precipitation Wind Pressure Humidity
    00:00 +15°C° 0 mm 1 mps 748 mmHg 57%
    01:00 +15°C° 0 mm 1 mps 748 mmHg 58%
    02:00 +14°C° 0 mm 1 mps 748 mmHg 60%
    03:00 +14°C° 0 mm 1 mps 748 mmHg 61%
    04:00 +14°C° 0 mm 1 mps 748 mmHg 62%
    05:00 +14°C° 0 mm 1 mps 748 mmHg 63%
    06:00 +14°C° 0 mm 1 mps 748 mmHg 64%
    07:00 +16°C° 0 mm 1 mps 748 mmHg 59%
    08:00 +19°C° 0 mm 1 mps 749 mmHg 53%
    09:00 +21°C° 0 mm 1 mps 749 mmHg 48%
    10:00 +23°C° 0 mm 1 mps 749 mmHg 44%
    11:00 +24°C° 0 mm 1 mps 749 mmHg 41%
    12:00 +25°C° 0 mm 2 mps 748 mmHg 38%
    13:00 +25°C° 0 mm 2 mps 748 mmHg 36%
    14:00 +26°C° 0 mm 2 mps 748 mmHg 35%
    15:00 +26°C° 0 mm 2 mps 748 mmHg 34%
    16:00 +26°C° 0 mm 1 mps 747 mmHg 37%
    17:00 +25°C° 0 mm 1 mps 747 mmHg 41%
    18:00 +25°C° 0 mm 1 mps 747 mmHg 44%
    19:00 +23°C° 0 mm 1 mps 747 mmHg 47%
    20:00 +21°C° 0 mm 1 mps 747 mmHg 49%
    21:00 +19°C° 0 mm 1 mps 747 mmHg 52%
    22:00 +19°C° 0 mm 1 mps 747 mmHg 53%
    23:00 +18°C° 0 mm 1 mps 747 mmHg 54%

    26 August, Sunday

    Time Temperature Precipitation Wind Pressure Humidity
    00:00 +18°C° 0 mm 1 mps 747 mmHg 56%
    01:00 +16°C° 0 mm 1 mps 747 mmHg 57%
    02:00 +16°C° 0 mm 2 mps 747 mmHg 59%
    03:00 +16°C° 0 mm 2 mps 747 mmHg 60%
    04:00 +15°C° 0 mm 2 mps 747 mmHg 62%
    05:00 +15°C° 0 mm 2 mps 747 mmHg 64%
    06:00 +15°C° 0 mm 2 mps 747 mmHg 66%
    07:00 +17°C° 0 mm 2 mps 747 mmHg 61%
    08:00 +20°C° 0 mm 2 mps 747 mmHg 56%
    09:00 +23°C° 0 mm 2 mps 747 mmHg 51%
    10:00 +24°C° 0 mm 2 mps 747 mmHg 46%
    11:00 +25°C° 0 mm 2 mps 747 mmHg 42%
    12:00 +27°C° 0 mm 2 mps 747 mmHg 38%
    13:00 +27°C° 0 mm 2 mps 746 mmHg 37%
    14:00 +28°C° 0 mm 2 mps 746 mmHg 36%
    15:00 +28°C° 0 mm 2 mps 746 mmHg 35%
    16:00 +27°C° 0 mm 2 mps 746 mmHg 39%
    17:00 +27°C° 0 mm 2 mps 746 mmHg 44%
    18:00 +26°C° 0 mm 2 mps 745 mmHg 48%
    19:00 +24°C° 0 mm 2 mps 745 mmHg 52%
    20:00 +23°C° 0 mm 2 mps 746 mmHg 56%
    21:00 +20°C° 0 mm 3 mps 746 mmHg 60%
    22:00 +19°C° 0 mm 3 mps 746 mmHg 62%
    23:00 +19°C° 0 mm 3 mps 746 mmHg 65%

    27 August, Monday

    Time Temperature Precipitation Wind Pressure Humidity
    00:00 +18°C° 0 mm 3 mps 746 mmHg 67%
    01:00 +18°C° 0 mm 3 mps 746 mmHg 70%
    02:00 +17°C° 0 mm 3 mps 746 mmHg 72%
    03:00 +17°C° 0 mm 2 mps 746 mmHg 75%
    04:00 +17°C° 0 mm 2 mps 746 mmHg 78%
    05:00 +17°C° 0 mm 2 mps 746 mmHg 80%
    06:00 +16°C° 0 mm 2 mps 746 mmHg 83%
    07:00 +18°C° 0 mm 3 mps 747 mmHg 76%
    08:00 +21°C° 0 mm 3 mps 747 mmHg 70%
    09:00 +24°C° 0 mm 3 mps 747 mmHg 63%
    10:00 +25°C° 0 mm 3 mps 747 mmHg 58%
    11:00 +26°C° 0 mm 3 mps 747 mmHg 53%
    12:00 +27°C° 0 mm 3 mps 747 mmHg 48%
    13:00 +27°C° 0 mm 3 mps 747 mmHg 47%
    14:00 +28°C° 0 mm 3 mps 746 mmHg 45%
    15:00 +28°C° 0 mm 3 mps 746 mmHg 44%
    16:00 +27°C° 0 mm 3 mps 746 mmHg 47%
    17:00 +27°C° 0 mm 2 mps 746 mmHg 50%
    18:00 +26°C° 0 mm 2 mps 746 mmHg 54%
    19:00 +24°C° 0 mm 2 mps 747 mmHg 57%
    20:00 +21°C° 0 mm 2 mps 747 mmHg 61%
    21:00 +20°C° 0 mm 2 mps 747 mmHg 64%
    22:00 +19°C° 0 mm 2 mps 747 mmHg 65%
    23:00 +18°C° 0 mm 2 mps 747 mmHg 66%
    Show more